N91HK KPBI-MYAM

Flight info

Callsign N91HK
Flight time 0h -25m
Altitude 21000
Route MIXAE4 HALBI DCT ZFP BR70V MRRSH
Aircraft CL60/M-SADE3FGHIJ3J4J7P2RWXY/HB1D1

Departure

Time 2026-04-23 13:55
Airport Palm Beach International Airport (KPBI)

Arrival

Time 2026-04-23 13:29
Airport Leonard M. Thompson International Airport (MYAM)
Time Latitude Longitude Altitude Speed Heading
2026-04-23 13:29 26.51335 -77.08400 15 ft 0 kts 90°
2026-04-23 13:31 26.51333 -77.08392 15 ft 3 kts 121°
2026-04-23 13:31 26.51252 -77.08380 16 ft 22 kts 172°
2026-04-23 13:31 26.51146 -77.08374 17 ft 11 kts 240°
2026-04-23 13:31 26.51136 -77.08572 16 ft 39 kts 269°
2026-04-23 13:32 26.51127 -77.08922 11 ft 47 kts 267°
2026-04-23 13:32 26.51119 -77.09279 11 ft 40 kts 268°
2026-04-23 13:32 26.51094 -77.09472 14 ft 12 kts 211°
2026-04-23 13:32 26.50997 -77.09463 11 ft 13 kts 132°
2026-04-23 13:33 26.50995 -77.09244 9 ft 68 kts 88°
2026-04-23 13:33 26.51020 -77.08344 205 ft 144 kts 82°
2026-04-23 13:33 26.51749 -77.07569 1020 ft 173 kts 10°
2026-04-23 13:33 26.52991 -77.08079 1554 ft 220 kts 317°
2026-04-23 13:34 26.53593 -77.09031 1984 ft 236 kts 301°
2026-04-23 13:34 26.54512 -77.11581 2603 ft 294 kts 285°
2026-04-23 13:34 26.54710 -77.13947 3235 ft 320 kts 272°
2026-04-23 13:34 26.54741 -77.16469 4600 ft 327 kts 272°
2026-04-23 13:35 26.54782 -77.18985 6047 ft 329 kts 273°
2026-04-23 13:35 26.54824 -77.21523 7420 ft 332 kts 274°
2026-04-23 13:35 26.54876 -77.24116 8693 ft 337 kts 273°
2026-04-23 13:35 26.54923 -77.26736 9937 ft 341 kts 273°
2026-04-23 13:36 26.54971 -77.29376 10811 ft 355 kts 273°
2026-04-23 13:36 26.55020 -77.32235 11477 ft 373 kts 273°
2026-04-23 13:36 26.55066 -77.35146 12322 ft 382 kts 273°
2026-04-23 13:36 26.55109 -77.38120 13259 ft 387 kts 273°
2026-04-23 13:37 26.55151 -77.41167 14267 ft 390 kts 273°
2026-04-23 13:37 26.55188 -77.44186 15245 ft 391 kts 273°
2026-04-23 13:37 26.55233 -77.47203 16241 ft 391 kts 273°
2026-04-23 13:37 26.55276 -77.50218 17184 ft 391 kts 273°
2026-04-23 13:38 26.55316 -77.53276 18065 ft 392 kts 273°
2026-04-23 13:38 26.55353 -77.56319 18810 ft 396 kts 273°
2026-04-23 13:38 26.55388 -77.59444 19510 ft 400 kts 273°
2026-04-23 13:38 26.55422 -77.62553 19983 ft 400 kts 273°
2026-04-23 13:39 26.55453 -77.65644 20143 ft 399 kts 272°
2026-04-23 13:39 26.55484 -77.68849 20171 ft 415 kts 272°
2026-04-23 13:39 26.55505 -77.71014 20169 ft 425 kts 272°
2026-04-23 13:39 26.55547 -77.75493 20169 ft 433 kts 272°
2026-04-23 13:40 26.55577 -77.78844 20172 ft 431 kts 272°
2026-04-23 13:40 26.55614 -77.82185 20170 ft 429 kts 274°
2026-04-23 13:40 26.55687 -77.85520 20181 ft 428 kts 274°
2026-04-23 13:40 26.55749 -77.88854 20190 ft 430 kts 273°
2026-04-23 13:41 26.55765 -77.92181 20177 ft 431 kts 272°
2026-04-23 13:41 26.55783 -77.95532 20165 ft 431 kts 272°
2026-04-23 13:41 26.55802 -77.98891 20166 ft 431 kts 272°
2026-04-23 13:41 26.55818 -78.02257 20174 ft 431 kts 272°
2026-04-23 13:42 26.55832 -78.05584 20167 ft 431 kts 272°
2026-04-23 13:42 26.55845 -78.08942 20169 ft 431 kts 272°
2026-04-23 13:42 26.55858 -78.12298 20160 ft 431 kts 272°
2026-04-23 13:42 26.55869 -78.15659 20162 ft 431 kts 272°
2026-04-23 13:43 26.55883 -78.18996 20166 ft 431 kts 272°
2026-04-23 13:43 26.55893 -78.21250 20171 ft 431 kts 272°
2026-04-23 13:43 26.55912 -78.25710 20171 ft 431 kts 272°
2026-04-23 13:43 26.55924 -78.29058 20172 ft 431 kts 272°
2026-04-23 13:44 26.55936 -78.32408 20176 ft 431 kts 272°
2026-04-23 13:44 26.55947 -78.35754 20167 ft 432 kts 272°
2026-04-23 13:44 26.55957 -78.39152 20162 ft 432 kts 272°
2026-04-23 13:44 26.55965 -78.42465 20168 ft 432 kts 272°
2026-04-23 13:45 26.55971 -78.44746 20164 ft 432 kts 272°
2026-04-23 13:45 26.55981 -78.49219 20186 ft 432 kts 272°
2026-04-23 13:45 26.55985 -78.51422 20182 ft 432 kts 272°
2026-04-23 13:45 26.55993 -78.55911 20174 ft 431 kts 272°
2026-04-23 13:46 26.55998 -78.59294 20187 ft 432 kts 272°
2026-04-23 13:46 26.56001 -78.62631 20185 ft 432 kts 272°
2026-04-23 13:46 26.56004 -78.64851 20182 ft 432 kts 272°
2026-04-23 13:46 26.56006 -78.68239 20184 ft 432 kts 272°
2026-04-23 13:47 26.56248 -78.71556 20157 ft 431 kts 283°
2026-04-23 13:47 26.57189 -78.74709 20127 ft 429 kts 292°
2026-04-23 13:47 26.58289 -78.77854 20162 ft 429 kts 291°
2026-04-23 13:47 26.59352 -78.80949 20179 ft 431 kts 291°
2026-04-23 13:48 26.60429 -78.84106 20186 ft 433 kts 291°
2026-04-23 13:48 26.61857 -78.88326 20183 ft 433 kts 291°
2026-04-23 13:48 26.62921 -78.91496 20175 ft 433 kts 291°
2026-04-23 13:48 26.63990 -78.94697 20160 ft 434 kts 291°
2026-04-23 13:49 26.65035 -78.97836 20156 ft 433 kts 291°
2026-04-23 13:49 26.66072 -79.00968 20174 ft 433 kts 291°
2026-04-23 13:49 26.67127 -79.04163 20164 ft 434 kts 291°
2026-04-23 13:49 26.67810 -79.06239 20157 ft 434 kts 291°
2026-04-23 13:50 26.69206 -79.10485 20142 ft 433 kts 291°
2026-04-23 13:50 26.69887 -79.12564 20151 ft 433 kts 291°
2026-04-23 13:50 26.71275 -79.16811 20148 ft 434 kts 291°
2026-04-23 13:50 26.71968 -79.18933 20149 ft 434 kts 291°
2026-04-23 13:51 26.72994 -79.22083 20146 ft 433 kts 291°
2026-04-23 13:51 26.74369 -79.26315 20146 ft 433 kts 291°
2026-04-23 13:51 26.75052 -79.28420 20148 ft 433 kts 291°
2026-04-23 13:51 26.76436 -79.32697 20150 ft 433 kts 291°
2026-04-23 13:52 26.77463 -79.35875 20146 ft 433 kts 291°
2026-04-23 13:52 26.78141 -79.37973 20148 ft 434 kts 291°
2026-04-23 13:52 26.79515 -79.42237 20148 ft 434 kts 291°
2026-04-23 13:52 26.80190 -79.44332 20148 ft 434 kts 291°
2026-04-23 13:53 26.81569 -79.48620 20145 ft 434 kts 291°
2026-04-23 13:53 26.82241 -79.50713 20147 ft 434 kts 291°
2026-04-23 13:53 26.83604 -79.54963 20148 ft 434 kts 291°
2026-04-23 13:53 26.84416 -79.58209 20179 ft 434 kts 281°
2026-04-23 13:54 26.84606 -79.60458 20136 ft 428 kts 274°
2026-04-23 13:54 26.84045 -79.64683 18848 ft 407 kts 257°
2026-04-23 13:54 26.83615 -79.66743 18027 ft 399 kts 262°
2026-04-23 13:54 26.83277 -79.69744 16817 ft 390 kts 266°
2026-04-23 13:55 26.82945 -79.73723 15204 ft 380 kts 266°
2026-04-23 13:55 26.82786 -79.75658 14387 ft 376 kts 267°
2026-04-23 13:55 26.82549 -79.78512 13228 ft 370 kts 266°
2026-04-23 13:55 26.82232 -79.82302 11608 ft 363 kts 266°
2026-04-23 13:56 26.82000 -79.85091 10431 ft 358 kts 267°
2026-04-23 13:56 26.81772 -79.87857 9314 ft 352 kts 266°
2026-04-23 13:56 26.81564 -79.90528 8660 ft 334 kts 267°
2026-04-23 13:56 26.81438 -79.92259 8249 ft 324 kts 267°
2026-04-23 13:57 26.81212 -79.95531 7433 ft 309 kts 267°
2026-04-23 13:57 26.81106 -79.97127 7018 ft 303 kts 267°
2026-04-23 13:57 26.80954 -79.99477 6391 ft 296 kts 267°
2026-04-23 13:57 26.80817 -80.01761 5779 ft 290 kts 267°
2026-04-23 13:58 26.80687 -80.03973 5170 ft 286 kts 267°
2026-04-23 13:58 26.80518 -80.06934 4423 ft 284 kts 267°
2026-04-23 13:58 26.80456 -80.09152 4009 ft 279 kts 271°
2026-04-23 13:58 26.80337 -80.10561 3772 ft 274 kts 256°
2026-04-23 13:59 26.79002 -80.12877 3273 ft 262 kts 215°
2026-04-23 13:59 26.77360 -80.13628 2812 ft 255 kts 185°
2026-04-23 13:59 26.75604 -80.13699 2235 ft 242 kts 178°
2026-04-23 13:59 26.73984 -80.13689 1701 ft 221 kts 177°
2026-04-23 14:00 26.72990 -80.13658 1433 ft 201 kts 173°
2026-04-23 14:00 26.71262 -80.13408 961 ft 171 kts 165°
2026-04-23 14:00 26.70248 -80.13097 834 ft 135 kts 159°
2026-04-23 14:00 26.69681 -80.12862 636 ft 126 kts 153°
2026-04-23 14:01 26.68924 -80.12361 369 ft 121 kts 136°
2026-04-23 14:01 26.68384 -80.11304 106 ft 120 kts 101°
2026-04-23 14:01 26.68303 -80.10408 24 ft 107 kts 94°
2026-04-23 14:01 26.68273 -80.09747 22 ft 44 kts 96°
2026-04-23 14:02 26.68194 -80.09531 21 ft 29 kts 137°
2026-04-23 14:02 26.68051 -80.09367 22 ft 26 kts 123°
2026-04-23 14:02 26.67981 -80.09258 22 ft 25 kts 128°
2026-04-23 14:02 26.67867 -80.09195 22 ft 10 kts 205°
2026-04-23 14:03 26.67845 -80.09221 22 ft 6 kts 266°
2026-04-23 14:03 26.67860 -80.09244 21 ft 0 kts 327°